StationID,Date,MaxTemp,MinTemp,Precipitation,Snowfall,SnowDepth
"USW00025382","2016-10-13",55.04,24.98,0.00,,
"USW00025382","2016-10-14",51.80,24.62,0.00,,
"USW00025382","2016-10-15",46.04,24.98,0.00,,
"USW00025382","2016-10-16",43.34,24.26,54.00,,
"USW00025382","2016-10-17",44.96,36.86,412.00,,
"USW00025382","2016-10-18",47.48,33.80,69.00,,
"USW00025382","2016-10-19",47.30,33.44,169.00,,
"USW00025382","2016-10-20",50.90,36.14,11.00,,
"USW00025382","2016-10-21",49.28,31.28,0.00,,
"USW00025382","2016-10-22",47.30,28.76,11.00,,
"USW00025382","2016-10-23",48.56,27.68,30.00,,
"USW00025382","2016-10-24",46.76,23.90,0.00,,
"USW00025382","2016-10-25",51.62,27.68,0.00,,
"USW00025382","2016-10-26",47.48,24.62,0.00,,
"USW00025382","2016-10-27",48.02,24.62,0.00,,
"USW00025382","2016-10-28",48.92,34.52,8.00,,
"USW00025382","2016-10-29",45.50,36.86,0.00,,
"USW00025382","2016-10-30",49.28,28.76,0.00,,
"USW00025382","2016-10-31",47.48,27.86,0.00,,
"USW00025382","2016-11-01",50.54,34.88,30.00,,
"USW00025382","2016-11-02",44.96,34.52,67.00,,
"USW00025382","2016-11-03",44.60,34.70,240.00,,
"USW00025382","2016-11-04",46.04,38.30,119.00,,
"USW00025382","2016-11-05",42.98,30.56,52.00,,
"USW00025382","2016-11-06",39.02,28.40,5.00,,
"USW00025382","2016-11-07",44.24,32.00,176.00,,
"USW00025382","2016-11-08",46.58,41.54,397.00,,
"USW00025382","2016-11-09",46.76,41.72,358.00,,
"USW00025382","2016-11-10",49.46,42.26,238.00,,
"USW00025382","2016-11-11",48.02,40.28,259.00,,
"USW00025382","2016-11-12",45.32,40.10,154.00,,
"USW00025382","2016-11-13",45.68,36.68,234.00,,
"USW00025382","2016-11-14",42.80,33.98,213.00,,
"USW00025382","2016-11-15",35.60,26.60,3.00,,
"USW00025382","2016-11-16",32.90,22.82,0.00,,
"USW00025382","2016-11-17",31.10,19.22,0.00,,
"USW00025382","2016-11-18",30.20,18.68,0.00,,
"USW00025382","2016-11-19",28.22,15.80,7.00,,
"USW00025382","2016-11-20",31.64,24.26,21.00,,
"USW00025382","2016-11-21",28.04,15.98,0.00,,
"USW00025382","2016-11-22",37.22,22.82,0.00,,
"USW00025382","2016-11-23",32.72,20.30,4.00,,
"USW00025382","2016-11-24",28.40,16.52,0.00,,
"USW00025382","2016-11-25",35.24,24.26,194.00,,
"USW00025382","2016-11-26",37.04,33.08,317.00,,
"USW00025382","2016-11-27",36.68,32.72,220.00,,
"USW00025382","2016-11-28",40.46,31.82,121.00,,
"USW00025382","2016-11-29",44.24,32.54,371.00,,
"USW00025382","2016-11-30",39.92,31.28,209.00,,
"USW00025382","2016-12-01",38.30,33.08,225.00,,
"USW00025382","2016-12-02",41.90,34.34,46.00,,
"USW00025382","2016-12-03",38.30,24.98,105.00,,
"USW00025382","2016-12-04",26.96,18.32,0.00,,
"USW00025382","2016-12-05",24.62,15.80,0.00,,
"USW00025382","2016-12-06",28.76,23.00,60.00,,
"USW00025382","2016-12-07",30.02,23.54,5.00,,
"USW00025382","2016-12-08",30.20,11.12,93.00,,
"USW00025382","2016-12-09",17.96,6.98,0.00,,
"USW00025382","2016-12-10",26.60,8.24,0.00,,
"USW00025382","2016-12-11",18.32,8.78,0.00,,
"USW00025382","2016-12-12",15.26,5.54,0.00,,
"USW00025382","2016-12-13",24.62,12.92,0.00,,
"USW00025382","2016-12-14",22.28,6.62,0.00,,
"USW00025382","2016-12-15",20.48,4.64,0.00,,
"USW00025382","2016-12-16",32.54,19.94,54.00,,
"USW00025382","2016-12-17",38.30,31.28,418.00,,
"USW00025382","2016-12-18",39.38,31.10,262.00,,
"USW00025382","2016-12-19",42.44,32.72,240.00,,
"USW00025382","2016-12-20",38.84,32.00,228.00,,
"USW00025382","2016-12-21",33.62,31.46,55.00,,
"USW00025382","2016-12-22",34.52,27.86,85.00,,
"USW00025382","2016-12-23",28.04,21.74,0.00,,
"USW00025382","2016-12-24",32.72,26.24,90.00,,
"USW00025382","2016-12-25",33.62,32.18,43.00,,
"USW00025382","2016-12-26",33.26,32.00,69.00,,
"USW00025382","2016-12-27",34.16,31.82,117.00,,
"USW00025382","2016-12-28",37.76,31.28,56.00,,
"USW00025382","2016-12-29",32.36,28.40,27.00,,
"USW00025382","2016-12-30",39.92,28.58,153.00,,
"USW00025382","2016-12-31",31.82,17.96,0.00,,
"USW00025382","2017-01-01",24.62,15.44,0.00,,
"USW00025382","2017-01-02",23.90,15.80,0.00,,
"USW00025382","2017-01-03",22.46,14.36,0.00,,
"USW00025382","2017-01-04",30.56,19.04,0.00,,
"USW00025382","2017-01-05",25.16,15.80,0.00,,
"USW00025382","2017-01-06",27.50,18.68,0.00,,
"USW00025382","2017-01-07",32.72,15.26,0.00,,
"USW00025382","2017-01-08",27.14,10.22,0.00,,
"USW00025382","2017-01-09",21.38,12.56,0.00,,
"USW00025382","2017-01-10",21.92,10.40,0.00,,
"USW00025382","2017-01-11",26.42,10.22,6.00,,
"USW00025382","2017-01-12",32.54,26.24,17.00,,
"USW00025382","2017-01-13",42.62,32.00,746.00,,
"USW00025382","2017-01-14",42.44,34.34,583.00,,
"USW00025382","2017-01-15",41.18,32.18,262.00,,
"USW00025382","2017-01-16",41.36,31.10,448.00,,
"USW00025382","2017-01-17",33.26,21.02,35.00,,
"USW00025382","2017-01-18",28.04,19.40,17.00,,
"USW00025382","2017-01-19",27.32,17.96,50.00,,
"USW00025382","2017-01-20",19.22,4.64,0.00,,
"USW00025382","2017-01-21",20.66,4.46,0.00,,
"USW00025382","2017-01-22",31.64,6.98,81.00,,
"USW00025382","2017-01-23",37.40,31.64,163.00,,
"USW00025382","2017-01-24",41.36,32.18,853.00,,
"USW00025382","2017-01-25",42.44,34.88,211.00,,
"USW00025382","2017-01-26",42.08,36.14,169.00,,
"USW00025382","2017-01-27",43.16,31.28,220.00,,
"USW00025382","2017-01-28",42.44,30.38,130.00,,
"USW00025382","2017-01-29",35.60,22.82,57.00,,
"USW00025382","2017-01-30",30.20,21.38,2.00,,
"USW00025382","2017-01-31",32.90,23.00,0.00,,
"USW00025382","2017-02-01",30.56,20.84,0.00,,
"USW00025382","2017-02-02",33.44,14.36,0.00,,
"USW00025382","2017-02-03",34.70,15.26,0.00,,
"USW00025382","2017-02-04",38.66,15.26,0.00,,
"USW00025382","2017-02-05",35.42,16.34,0.00,,
"USW00025382","2017-02-06",39.20,12.56,0.00,,
"USW00025382","2017-02-07",33.08,11.30,0.00,,
"USW00025382","2017-02-08",31.64,15.08,6.00,,
"USW00025382","2017-02-09",31.82,28.58,88.00,,
"USW00025382","2017-02-10",32.54,27.14,245.00,,
"USW00025382","2017-02-11",41.90,28.94,343.00,,
"USW00025382","2017-02-12",37.22,30.38,151.00,,
"USW00025382","2017-02-13",43.88,36.50,910.00,,
"USW00025382","2017-02-14",42.62,37.22,363.00,,
"USW00025382","2017-02-15",40.82,30.20,243.00,,
"USW00025382","2017-02-16",37.40,24.62,0.00,,
"USW00025382","2017-02-17",32.72,25.16,136.00,,
"USW00025382","2017-02-18",34.52,24.62,77.00,,
"USW00025382","2017-02-19",33.80,16.16,0.00,,
"USW00025382","2017-02-20",34.52,24.26,0.00,,
"USW00025382","2017-02-21",33.98,14.36,0.00,,
"USW00025382","2017-02-22",31.46,11.48,0.00,,
"USW00025382","2017-02-23",34.88,18.50,0.00,,
"USW00025382","2017-02-24",33.08,14.72,33.00,,
"USW00025382","2017-02-25",41.54,24.98,29.00,,
"USW00025382","2017-02-26",40.10,20.66,0.00,,
"USW00025382","2017-02-27",36.14,15.44,25.00,,
"USW00025382","2017-02-28",35.42,26.24,0.00,,
"USW00025382","2017-03-01",28.58,20.84,114.00,,
"USW00025382","2017-03-02",30.92,13.82,0.00,,
"USW00025382","2017-03-03",32.18,11.30,0.00,,
"USW00025382","2017-03-04",28.40,3.02,0.00,,
"USW00025382","2017-03-05",25.34,2.84,0.00,,
"USW00025382","2017-03-06",19.58,0.68,0.00,,
"USW00025382","2017-03-07",25.34,-3.64,0.00,,
"USW00025382","2017-03-08",25.70,4.46,0.00,,
"USW00025382","2017-03-09",29.66,2.30,0.00,,
"USW00025382","2017-03-10",33.44,2.30,0.00,,
"USW00025382","2017-03-11",32.36,2.66,0.00,,
"USW00025382","2017-03-12",32.18,1.22,0.00,,
"USW00025382","2017-03-13",28.58,21.20,28.00,,
"USW00025382","2017-03-14",32.18,15.98,35.00,,
"USW00025382","2017-03-15",32.54,25.34,171.00,,
"USW00025382","2017-03-16",35.60,16.16,15.00,,
"USW00025382","2017-03-17",39.56,8.78,0.00,,
"USW00025382","2017-03-18",35.24,8.42,0.00,,
"USW00025382","2017-03-19",33.98,22.82,148.00,,
"USW00025382","2017-03-20",36.86,32.00,215.00,,
"USW00025382","2017-03-21",41.90,26.24,64.00,,
"USW00025382","2017-03-22",43.16,22.46,0.00,,
"USW00025382","2017-03-23",39.20,27.14,27.00,,
"USW00025382","2017-03-24",42.44,23.18,6.00,,
"USW00025382","2017-03-25",39.02,17.24,37.00,,
"USW00025382","2017-03-26",42.98,28.58,10.00,,
"USW00025382","2017-03-27",39.56,29.30,150.00,,
"USW00025382","2017-03-28",39.02,32.18,236.00,,
"USW00025382","2017-03-29",39.38,32.00,216.00,,
"USW00025382","2017-03-30",37.40,31.64,209.00,,
"USW00025382","2017-03-31",40.28,33.44,648.00,,
"USW00025382","2017-04-01",40.28,33.80,231.00,,
"USW00025382","2017-04-02",40.10,31.10,36.00,,
"USW00025382","2017-04-03",39.56,30.56,117.00,,
"USW00025382","2017-04-04",49.46,34.16,51.00,,
"USW00025382","2017-04-05",47.12,33.44,57.00,,
"USW00025382","2017-04-06",44.96,28.76,67.00,,
"USW00025382","2017-04-07",47.12,26.06,0.00,,
"USW00025382","2017-04-08",46.58,23.90,0.00,,
"USW00025382","2017-04-09",44.60,34.52,46.00,,
"USW00025382","2017-04-10",48.38,35.06,33.00,,
"USW00025382","2017-04-11",49.64,30.02,0.00,,
"USW00025382","2017-04-12",61.88,26.96,0.00,,
"USW00025382","2017-04-13",58.82,28.04,0.00,,
"USW00025382","2017-04-14",59.36,27.86,0.00,,
"USW00025382","2017-04-15",49.10,25.70,0.00,,
"USW00025382","2017-04-16",47.66,27.50,0.00,,
"USW00025382","2017-04-17",55.04,24.62,0.00,,
"USW00025382","2017-04-18",50.72,25.34,0.00,,
"USW00025382","2017-04-19",50.00,21.02,0.00,,
"USW00025382","2017-04-20",50.18,32.36,0.00,,
"USW00025382","2017-04-21",53.60,30.38,8.00,,
"USW00025382","2017-04-22",60.44,26.06,0.00,,
"USW00025382","2017-04-23",57.20,27.68,0.00,,
"USW00025382","2017-04-24",48.38,41.36,66.00,,
"USW00025382","2017-04-25",48.38,33.44,10.00,,
"USW00025382","2017-04-26",54.50,29.48,0.00,,
"USW00025382","2017-04-27",49.10,38.84,46.00,,
"USW00025382","2017-04-28",45.32,36.68,137.00,,
"USW00025382","2017-04-29",48.38,30.02,0.00,,
"USW00025382","2017-04-30",48.02,37.76,12.00,,
"USW00025382","2017-05-01",42.08,36.14,285.00,,
"USW00025382","2017-05-02",49.10,35.96,186.00,,
"USW00025382","2017-05-03",46.76,37.22,156.00,,
"USW00025382","2017-05-04",46.58,29.84,61.00,,
"USW00025382","2017-05-05",53.06,27.32,0.00,,
"USW00025382","2017-05-06",49.10,30.38,0.00,,
"USW00025382","2017-05-07",44.60,40.10,95.00,,
"USW00025382","2017-05-08",46.04,38.12,110.00,,
"USW00025382","2017-05-09",46.94,30.92,32.00,,
"USW00025382","2017-05-10",55.22,28.94,0.00,,
"USW00025382","2017-05-11",65.48,32.00,0.00,,
"USW00025382","2017-05-12",54.32,37.94,0.00,,
"USW00025382","2017-05-13",45.86,41.72,5.00,,
"USW00025382","2017-05-14",48.02,32.36,59.00,,
"USW00025382","2017-05-15",55.04,29.84,0.00,,
"USW00025382","2017-05-16",60.98,30.02,0.00,,
"USW00025382","2017-05-17",51.08,34.34,0.00,,
"USW00025382","2017-05-18",50.36,35.06,19.00,,
"USW00025382","2017-05-19",47.30,42.08,93.00,,
"USW00025382","2017-05-20",48.02,41.90,284.00,,
"USW00025382","2017-05-21",49.10,44.78,986.00,,
"USW00025382","2017-05-22",51.62,42.98,17.00,,
"USW00025382","2017-05-23",51.44,44.06,3.00,,
"USW00025382","2017-05-24",48.56,43.88,18.00,,
"USW00025382","2017-05-25",48.38,33.26,57.00,,
"USW00025382","2017-05-26",51.26,33.44,41.00,,
"USW00025382","2017-05-27",51.44,32.72,0.00,,
"USW00025382","2017-05-28",62.96,39.38,6.00,,
"USW00025382","2017-05-29",52.34,44.42,0.00,,
"USW00025382","2017-05-30",55.58,39.56,11.00,,
"USW00025382","2017-05-31",65.30,34.88,0.00,,
"USW00025382","2017-06-01",55.58,47.30,86.00,,
"USW00025382","2017-06-02",59.36,47.84,52.00,,
"USW00025382","2017-06-03",51.80,35.96,103.00,,
"USW00025382","2017-06-04",58.82,32.00,0.00,,
"USW00025382","2017-06-05",57.02,41.54,24.00,,
"USW00025382","2017-06-06",68.36,46.76,91.00,,
"USW00025382","2017-06-07",60.44,50.36,22.00,,
"USW00025382","2017-06-08",70.52,50.18,2.00,,
"USW00025382","2017-06-09",54.68,48.74,17.00,,
"USW00025382","2017-06-10",52.88,47.48,7.00,,
"USW00025382","2017-06-11",51.80,45.50,14.00,,
"USW00025382","2017-06-12",52.34,42.44,72.00,,
"USW00025382","2017-06-13",54.68,39.38,0.00,,
"USW00025382","2017-06-14",57.38,35.42,0.00,,
"USW00025382","2017-06-15",54.50,41.90,74.00,,
"USW00025382","2017-06-16",50.36,46.04,136.00,,
"USW00025382","2017-06-17",51.08,47.84,45.00,,
"USW00025382","2017-06-18",55.76,42.08,0.00,,
"USW00025382","2017-06-19",57.02,39.92,74.00,,
"USW00025382","2017-06-20",56.30,39.20,0.00,,
"USW00025382","2017-06-21",55.40,35.60,0.00,,
"USW00025382","2017-06-22",58.10,45.14,5.00,,
"USW00025382","2017-06-23",61.70,42.44,0.00,,
"USW00025382","2017-06-24",55.76,38.84,64.00,,
"USW00025382","2017-06-25",61.88,44.78,0.00,,
"USW00025382","2017-06-26",54.68,49.46,12.00,,
"USW00025382","2017-06-27",54.50,48.02,37.00,,
"USW00025382","2017-06-28",56.66,48.92,27.00,,
"USW00025382","2017-06-29",56.84,48.20,51.00,,
"USW00025382","2017-06-30",56.66,48.74,62.00,,
"USW00025382","2017-07-01",55.58,50.18,195.00,,
"USW00025382","2017-07-02",56.48,49.64,43.00,,
"USW00025382","2017-07-03",59.90,44.06,0.00,,
"USW00025382","2017-07-04",58.28,44.60,0.00,,
"USW00025382","2017-07-05",60.80,43.52,0.00,,
"USW00025382","2017-07-06",72.68,42.26,0.00,,
"USW00025382","2017-07-07",60.26,51.26,13.00,,
"USW00025382","2017-07-08",53.60,42.44,117.00,,
"USW00025382","2017-07-09",52.34,41.54,293.00,,
"USW00025382","2017-07-10",58.10,49.10,69.00,,
"USW00025382","2017-07-11",55.94,45.68,52.00,,
"USW00025382","2017-07-12",66.38,39.02,0.00,,
"USW00025382","2017-07-13",63.50,46.40,0.00,,
"USW00025382","2017-07-14",59.72,53.60,0.00,,
"USW00025382","2017-07-15",57.38,52.16,29.00,,
"USW00025382","2017-07-16",60.08,50.90,0.00,,
"USW00025382","2017-07-17",60.80,52.88,16.00,,
"USW00025382","2017-07-18",57.20,52.52,18.00,,
"USW00025382","2017-07-19",60.62,52.34,9.00,,
"USW00025382","2017-07-20",61.52,50.00,0.00,,
"USW00025382","2017-07-21",65.30,45.86,0.00,,
"USW00025382","2017-07-22",63.32,41.90,0.00,,
"USW00025382","2017-07-23",63.68,48.38,0.00,,
"USW00025382","2017-07-24",60.26,52.34,19.00,,
"USW00025382","2017-07-25",59.36,52.52,24.00,,
"USW00025382","2017-07-26",61.52,52.88,0.00,,
"USW00025382","2017-07-27",59.72,53.24,28.00,,
"USW00025382","2017-07-28",60.44,50.00,95.00,,
"USW00025382","2017-07-29",65.84,42.98,3.00,,
"USW00025382","2017-07-30",64.22,42.26,0.00,,
"USW00025382","2017-07-31",63.14,47.12,73.00,,
"USW00025382","2017-08-01",64.22,43.52,0.00,,
"USW00025382","2017-08-03",64.94,55.94,3.00,,
"USW00025382","2017-08-04",61.16,46.76,2.00,,
"USW00025382","2017-08-05",64.76,42.08,0.00,,
"USW00025382","2017-08-06",62.78,55.04,0.00,,
"USW00025382","2017-08-07",62.78,49.64,0.00,,
"USW00025382","2017-08-08",65.30,45.68,0.00,,
"USW00025382","2017-08-09",64.76,41.54,0.00,,
"USW00025382","2017-08-10",62.60,48.02,2.00,,
"USW00025382","2017-08-11",59.18,47.48,359.00,,
"USW00025382","2017-08-12",59.18,53.78,93.00,,
"USW00025382","2017-08-13",59.54,47.30,129.00,,
"USW00025382","2017-08-14",57.02,43.88,79.00,,
"USW00025382","2017-08-15",63.86,43.34,0.00,,
"USW00025382","2017-08-16",57.38,38.48,148.00,,
"USW00025382","2017-08-17",59.36,42.08,160.00,,
"USW00025382","2017-08-18",59.54,39.38,84.00,,
"USW00025382","2017-08-19",56.84,47.84,448.00,,
"USW00025382","2017-08-20",54.50,48.20,264.00,,
"USW00025382","2017-08-21",56.66,52.34,448.00,,
"USW00025382","2017-08-22",57.74,49.82,138.00,,
"USW00025382","2017-08-23",60.08,48.92,0.00,,
"USW00025382","2017-08-24",55.40,45.86,242.00,,
"USW00025382","2017-08-25",54.14,49.82,635.00,,
"USW00025382","2017-08-26",57.02,48.38,507.00,,
"USW00025382","2017-08-27",54.50,47.12,500.00,,
"USW00025382","2017-08-28",57.02,44.60,277.00,,
"USW00025382","2017-08-29",61.16,51.98,281.00,,
"USW00025382","2017-08-30",56.66,48.92,453.00,,
"USW00025382","2017-08-31",54.86,48.20,515.00,,
"USW00025382","2017-09-01",53.96,44.42,165.00,,
"USW00025382","2017-09-02",56.48,37.40,28.00,,
"USW00025382","2017-09-03",59.90,32.72,150.00,,
"USW00025382","2017-09-04",55.94,49.46,981.00,,
"USW00025382","2017-09-05",72.14,53.60,383.00,,
"USW00025382","2017-09-06",57.56,47.66,80.00,,
"USW00025382","2017-09-07",56.30,48.02,208.00,,
"USW00025382","2017-09-08",53.24,48.20,292.00,,
"USW00025382","2017-09-09",52.88,47.30,290.00,,
"USW00025382","2017-09-10",51.08,45.86,155.00,,
"USW00025382","2017-09-11",55.76,42.44,6.00,,
"USW00025382","2017-09-12",56.30,42.44,3.00,,
"USW00025382","2017-09-13",54.86,43.88,5.00,,
"USW00025382","2017-09-14",53.96,44.60,23.00,,
"USW00025382","2017-09-15",51.62,46.04,127.00,,
"USW00025382","2017-09-16",51.80,47.30,587.00,,
"USW00025382","2017-09-17",55.04,41.00,34.00,,
"USW00025382","2017-09-18",55.76,40.82,0.00,,
"USW00025382","2017-09-19",56.84,39.74,0.00,,
"USW00025382","2017-09-20",57.20,34.88,0.00,,
"USW00025382","2017-09-21",49.64,43.70,164.00,,
"USW00025382","2017-09-22",55.94,47.84,100.00,,
"USW00025382","2017-09-23",57.20,49.82,5.00,,
"USW00025382","2017-09-24",55.76,44.78,179.00,,
"USW00025382","2017-09-25",54.86,37.40,0.00,,
"USW00025382","2017-09-26",52.52,44.06,397.00,,
"USW00025382","2017-09-27",56.66,50.18,956.00,,
"USW00025382","2017-09-28",55.94,41.54,42.00,,
"USW00025382","2017-09-29",53.78,33.98,0.00,,
"USW00025382","2017-09-30",53.60,35.24,0.00,,
"USW00025382","2017-10-01",55.40,30.92,0.00,,
"USW00025382","2017-10-02",46.94,36.68,501.00,,
"USW00025382","2017-10-03",51.44,46.04,1258.00,,
"USW00025382","2017-10-04",50.90,48.20,500.00,,
"USW00025382","2017-10-05",51.08,44.78,371.00,,
"USW00025382","2017-10-06",49.46,37.58,127.00,,
"USW00025382","2017-10-07",53.06,32.18,0.00,,
"USW00025382","2017-10-08",50.36,42.44,505.00,,
"USW00025382","2017-10-09",50.72,32.72,127.00,,
"USW00025382","2017-10-10",49.28,29.48,0.00,,
"USW00025382","2017-10-11",50.54,28.94,0.00,,
"USW00025382","2017-10-12",50.72,26.60,3.00,,
"USW00025382","2017-10-13",47.66,38.12,232.00,,
"USW00025382","2017-10-14",46.76,39.20,176.00,,
"USW00025382","2017-10-15",44.96,36.50,235.00,,
"USW00025382","2017-10-16",42.80,35.24,143.00,,
"USW00025382","2017-10-17",42.26,33.26,70.00,,
"USW00025382","2017-10-18",47.12,34.88,0.00,,
"USW00025382","2017-10-19",45.86,35.60,77.00,,
"USW00025382","2017-10-20",40.28,31.64,72.00,,
"USW00025382","2017-10-21",46.04,28.76,37.00,,
"USW00025382","2017-10-22",38.30,25.52,126.00,,
"USW00025382","2017-10-23",45.86,31.46,91.00,,
"USW00025382","2017-10-24",42.44,28.22,3.00,,
"USW00025382","2017-10-25",39.92,27.14,223.00,,
"USW00025382","2017-10-26",49.10,36.86,838.00,,
"USW00025382","2017-10-27",50.36,41.72,300.00,,
"USW00025382","2017-10-28",47.48,30.92,3.00,,
"USW00025382","2017-10-29",40.64,29.66,9.00,,
"USW00025382","2017-10-30",48.20,38.48,393.00,,
"USW00025382","2017-10-31",46.58,30.92,12.00,,
"USW00025382","2017-11-01",43.34,28.58,0.00,,
"USW00025382","2017-11-02",35.24,27.68,0.00,,
"USW00025382","2017-11-03",39.20,29.66,0.00,,
"USW00025382","2017-11-04",36.50,25.52,0.00,,
"USW00025382","2017-11-05",35.24,24.08,16.00,,
"USW00025382","2017-11-06",36.68,29.66,0.00,,
"USW00025382","2017-11-07",46.94,22.46,0.00,,
"USW00025382","2017-11-08",36.50,17.96,0.00,,
"USW00025382","2017-11-09",33.98,17.06,0.00,,
"USW00025382","2017-11-10",34.34,29.66,17.00,,
"USW00025382","2017-11-11",36.32,18.32,0.00,,
"USW00025382","2017-11-12",29.30,13.64,0.00,,
"USW00025382","2017-11-13",41.00,20.48,0.00,,
"USW00025382","2017-11-14",38.84,15.62,0.00,,
"USW00025382","2017-11-15",28.40,11.66,0.00,,
"USW00025382","2017-11-16",31.10,11.66,47.00,,
"USW00025382","2017-11-17",32.90,18.68,96.00,,
"USW00025382","2017-11-18",22.64,8.24,0.00,,
"USW00025382","2017-11-19",25.34,4.28,7.00,,
"USW00025382","2017-11-20",34.70,24.44,0.00,,
"USW00025382","2017-11-21",33.44,17.96,6.00,,
"USW00025382","2017-11-22",28.04,15.62,14.00,,
"USW00025382","2017-11-23",30.38,24.08,43.00,,
"USW00025382","2017-11-24",34.52,26.42,0.00,,
"USW00025382","2017-11-25",35.60,26.24,0.00,,
"USW00025382","2017-11-26",29.12,17.24,18.00,,
"USW00025382","2017-11-27",34.52,26.42,82.00,,
"USW00025382","2017-11-28",35.60,30.92,78.00,,
"USW00025382","2017-11-29",41.18,32.36,274.00,,
"USW00025382","2017-11-30",34.52,30.74,18.00,,
"USW00025382","2017-12-01",31.82,24.26,0.00,,
"USW00025382","2017-12-02",32.00,26.42,22.00,,
"USW00025382","2017-12-03",41.54,31.64,446.00,,
"USW00025382","2017-12-04",44.42,34.34,6.00,,
"USW00025382","2017-12-05",45.68,34.16,435.00,,
"USW00025382","2017-12-06",45.14,42.44,992.00,,
"USW00025382","2017-12-07",48.02,40.10,973.00,,
"USW00025382","2017-12-08",48.20,41.36,534.00,,
"USW00025382","2017-12-09",47.84,42.26,171.00,,
"USW00025382","2017-12-10",48.92,40.82,130.00,,
"USW00025382","2017-12-11",47.84,32.00,59.00,,
"USW00025382","2017-12-12",41.54,32.18,47.00,,
"USW00025382","2017-12-13",46.76,35.06,741.00,,
"USW00025382","2017-12-14",46.58,37.22,428.00,,
"USW00025382","2017-12-15",37.76,32.36,181.00,,
"USW00025382","2017-12-16",41.90,32.36,325.00,,
"USW00025382","2017-12-17",34.16,30.74,97.00,,
"USW00025382","2017-12-18",31.10,20.12,0.00,,
"USW00025382","2017-12-19",30.56,19.22,14.00,,
"USW00025382","2017-12-20",33.80,21.56,29.00,,
"USW00025382","2017-12-21",23.00,13.10,0.00,,
"USW00025382","2017-12-22",20.84,12.92,0.00,,
"USW00025382","2017-12-23",19.40,10.94,0.00,,
"USW00025382","2017-12-24",20.12,11.48,0.00,,
"USW00025382","2017-12-25",29.30,20.12,10.00,,
"USW00025382","2017-12-26",27.14,12.38,0.00,,
"USW00025382","2017-12-27",17.24,7.16,0.00,,
"USW00025382","2017-12-28",14.54,5.36,0.00,,
"USW00025382","2017-12-29",21.74,8.06,7.00,,
"USW00025382","2017-12-30",22.64,19.94,31.00,,
"USW00025382","2017-12-31",32.00,14.54,48.00,,
"USW00025382","2018-01-01",44.06,31.10,372.00,,
"USW00025382","2018-01-02",43.88,36.86,387.00,,
"USW00025382","2018-01-03",42.08,30.92,244.00,,
"USW00025382","2018-01-04",35.78,30.74,0.00,,
"USW00025382","2018-01-05",34.16,30.92,10.00,,
"USW00025382","2018-01-06",37.58,32.36,293.00,,
"USW00025382","2018-01-07",41.00,30.38,56.00,,
"USW00025382","2018-01-08",33.26,25.34,75.00,,
"USW00025382","2018-01-09",25.34,7.88,20.00,,
"USW00025382","2018-01-10",16.88,5.54,0.00,,
"USW00025382","2018-01-11",27.68,16.88,0.00,,
"USW00025382","2018-01-12",33.80,27.14,110.00,,
"USW00025382","2018-01-13",45.32,33.08,517.00,,
"USW00025382","2018-01-14",50.00,45.14,746.00,,
"USW00025382","2018-01-15",47.30,40.82,137.00,,
"USW00025382","2018-01-16",45.86,41.00,217.00,,
"USW00025382","2018-01-17",41.72,28.58,177.00,,
"USW00025382","2018-01-18",30.74,24.44,0.00,,
"USW00025382","2018-01-19",30.02,22.46,0.00,,
"USW00025382","2018-01-20",32.18,20.30,36.00,,
"USW00025382","2018-01-21",31.82,27.32,0.00,,
"USW00025382","2018-01-22",32.72,24.26,59.00,,
"USW00025382","2018-01-23",30.56,12.92,19.00,,
"USW00025382","2018-01-24",26.06,10.22,6.00,,
"USW00025382","2018-01-25",27.32,20.12,0.00,,
"USW00025382","2018-01-26",32.36,19.40,7.00,,
"USW00025382","2018-01-27",28.22,15.80,7.00,,
"USW00025382","2018-01-28",32.54,9.14,0.00,,
"USW00025382","2018-01-29",30.02,9.86,0.00,,
"USW00025382","2018-01-30",27.50,7.16,0.00,,
"USW00025382","2018-01-31",25.88,10.22,0.00,,
"USW00025382","2018-02-01",26.96,7.52,0.00,,
"USW00025382","2018-02-02",29.30,4.10,0.00,,
"USW00025382","2018-02-03",29.66,3.74,0.00,,
"USW00025382","2018-02-04",26.06,1.76,0.00,,
"USW00025382","2018-02-05",29.48,8.60,0.00,,
"USW00025382","2018-02-06",33.44,24.44,28.00,,
"USW00025382","2018-02-07",33.62,17.24,0.00,,
"USW00025382","2018-02-08",30.92,10.22,0.00,,
"USW00025382","2018-02-09",30.38,5.90,0.00,,
"USW00025382","2018-02-10",33.26,8.24,0.00,,
"USW00025382","2018-02-11",33.44,24.62,6.00,,
"USW00025382","2018-02-12",38.48,30.38,413.00,,
"USW00025382","2018-02-13",40.46,29.30,18.00,,
"USW00025382","2018-02-14",33.26,25.52,2.00,,
"USW00025382","2018-02-15",34.52,28.58,40.00,,
"USW00025382","2018-02-16",32.18,17.60,0.00,,
"USW00025382","2018-02-17",35.42,15.62,0.00,,
"USW00025382","2018-02-18",34.34,12.74,0.00,,
"USW00025382","2018-02-19",37.04,20.30,5.00,,
"USW00025382","2018-02-20",34.52,17.78,0.00,,
"USW00025382","2018-02-21",36.50,19.04,0.00,,
"USW00025382","2018-02-22",32.72,25.34,260.00,,
"USW00025382","2018-02-23",39.20,24.98,50.00,,
"USW00025382","2018-02-24",32.72,24.62,74.00,,
"USW00025382","2018-02-25",31.64,13.28,0.00,,
"USW00025382","2018-02-26",36.50,24.98,176.00,,